Weather History for Debrecen, Hungary

Change the Weather History Date:

Monday, September 9, 2013

  Actual Average Record
Temperature  
Mean Temperature 62 °F -  
Max Temperature 75 °F 69 °F - ()
Min Temperature 48 °F 48 °F - ()
Degree Days  
Heating Degree Days 4    
Growing Degree Days 12 (Base 50)    
Moisture  
Dew Point 51 °F    
Average Humidity 65    
Maximum Humidity 94    
Minimum Humidity 26    
Precipitation  
Precipitation 0.16 in 0.05 in - ()
Sea Level Pressure  
Sea Level Pressure 30.08 in    
Wind  
Wind Speed 5 mph ()    
Max Wind Speed 18 mph    
Max Gust Speed -    
Visibility 7.2 miles    
Events Rain    
T = Trace of Precipitation, MM = Missing Value Source: Averaged Metar Reports

Daily Weather History Graph

Daily Weather History Graph

Search for Another Location

Airport:

Trip Planner

Search our weather history database for the weather conditions in past years. The results will help you decide how hot, cold, wet, or windy it might be!

Date:

Astronomy

Sep. 09, 2013 Rise Set
Actual Time 6:02 AM CEST 6:57 PM CEST
Civil Twilight 5:31 AM CEST 7:29 PM CEST
Nautical Twilight 4:54 AM CEST 8:06 PM CEST
Astronomical Twilight 4:14 AM CEST 8:45 PM CEST
Moon 10:25 AM CEST (9/9) 8:39 PM CEST (9/9)
Length of Visible Light 13h 57m
Length of Day
12h 55m
Waxing Crescent, 16% of the Moon is Illuminated
Sep 9
Waxing Crescent
Sep 12
First Quarter
Sep 19
Full
Sep 27
Last Quarter
Oct 5
New

Hourly Weather History & Observations

Time (CEST) Temp. Dew Point Humidity Pressure Visibility Wind Dir Wind Speed Gust Speed Precip Events Conditions
2:00 AM 55 °F 47 °F 66% 30.15 in - ENE 2.2 mph - -  
4:45 AM 50.0 °F 46.4 °F 87% 30.12 in - ENE 4.6 mph - N/A   Clear
5:45 AM 50.0 °F 44.6 °F 82% 30.09 in - ENE 5.8 mph - N/A   Clear
6:15 AM 50.0 °F 44.6 °F 82% 30.09 in - East 4.6 mph - N/A   Clear
6:45 AM 50.0 °F 46.4 °F 87% 30.09 in - ENE 4.6 mph - N/A   Clear
7:07 AM - - N/A% - 3.1 mi East 5.8 mph - N/A Rain Rain Showers
7:15 AM 53.6 °F 48.2 °F 82% 30.09 in - ENE 5.8 mph - N/A   Clear
7:45 AM 57.2 °F 50.0 °F 77% 30.06 in - East 5.8 mph - N/A   Clear
8:00 AM 58 °F 49 °F 65% 30.08 in 16 mi East 4.5 mph - -   Partly Cloudy
8:15 AM 60.8 °F 50.0 °F 68% 30.09 in - East 2.3 mph - N/A   Clear
8:45 AM 60.8 °F 50.0 °F 68% 30.09 in - East 2.3 mph - N/A   Clear
9:15 AM 64.4 °F 51.8 °F 64% 30.09 in - East 2.3 mph - N/A   Clear
9:45 AM 68.0 °F 50.0 °F 52% 30.09 in - SE 4.6 mph - N/A   Clear
10:15 AM 71.6 °F 48.2 °F 43% 30.09 in - SSE 4.6 mph - N/A   Clear
10:45 AM 75.2 °F 48.2 °F 38% 30.06 in - South 5.8 mph - N/A   Clear
11:15 AM 75.2 °F 50.0 °F 41% 30.06 in - SSE 5.8 mph - N/A   Clear
11:45 AM 75.2 °F 50.0 °F 41% 30.06 in - South 4.6 mph - N/A   Clear
12:15 PM 75.2 °F 50.0 °F 41% 30.06 in - SE 3.5 mph - N/A   Clear
12:45 PM 75.2 °F 48.2 °F 38% 30.06 in - SSW 4.6 mph - N/A   Clear
1:00 PM - - N/A% - 6.2 mi SSE 5.8 mph - N/A   Overcast
1:15 PM 75.2 °F 46.4 °F 36% 30.06 in - SW 9.2 mph - N/A   Clear
1:45 PM 75.2 °F 46.4 °F 36% 30.06 in - SW 9.2 mph - N/A   Clear
2:00 PM 75 °F 47 °F 26% 30.06 in 19 mi SW 8.9 mph - -   Partly Cloudy
2:15 PM 75.2 °F 48.2 °F 38% 30.06 in - WSW 11.5 mph - N/A   Clear
2:41 PM 73.4 °F 46.4 °F 38% 30.06 in - WSW 13.8 mph - N/A   Unknown
2:45 PM 73.4 °F 46.4 °F 38% 30.06 in 6.2 mi WSW 13.8 mph - N/A Rain Light Rain
2:48 PM 71.6 °F 50.0 °F 46% 30.06 in - West 18.4 mph - N/A   Unknown
3:15 PM 64.4 °F 55.4 °F 73% 30.09 in 6.2 mi WNW 12.7 mph - N/A Rain Light Rain
3:45 PM 62.6 °F 55.4 °F 77% 30.09 in 6.2 mi WNW 8.1 mph - N/A Rain Light Rain
4:15 PM 60.8 °F 55.4 °F 82% 30.06 in 6.2 mi NNW 3.5 mph - N/A Rain Light Rain
4:45 PM 60.8 °F 55.4 °F 82% 30.06 in 6.2 mi Calm Calm - N/A Rain Light Rain
5:15 PM 60.8 °F 55.4 °F 82% 30.06 in 6.2 mi Calm Calm - N/A Rain Light Rain
5:45 PM 60.8 °F 57.2 °F 88% 30.09 in 6.2 mi West 3.5 mph - N/A Rain Light Rain
6:15 PM 60.8 °F 57.2 °F 88% 30.09 in 6.2 mi NNW 2.3 mph - N/A Rain Light Rain
6:45 PM 60.8 °F 55.4 °F 82% 30.09 in 6.2 mi WNW 8.1 mph - N/A Rain Light Rain
7:15 PM 59.0 °F 55.4 °F 88% 30.09 in 6.2 mi WSW 6.9 mph - N/A Rain Light Rain
7:45 PM 59.0 °F 55.4 °F 88% 30.09 in 6.2 mi WNW 4.6 mph - N/A Rain Light Rain Showers
8:00 PM 58 °F 56 °F 90% 30.10 in 6 mi WNW 4.5 mph - - Rain Light Rain Showers
8:15 PM 57.2 °F 55.4 °F 94% 30.09 in 6.2 mi NW 2.3 mph - N/A Rain Light Rain
8:45 PM 57.2 °F 55.4 °F 94% 30.12 in 5.0 mi NNW 2.3 mph - N/A   Mostly Cloudy
9:00 PM - - N/A% - - North - - N/A   Unknown